Location: Rio Negrinho
(26.2394°S, 49.4999°W)
Time: 12:50:55
(UTC+00:00)

NOAA 6 - Pass Details

Date: 08 October 2020
Orbit: 773 x 786 km, 98.7° (Epoch: 26 October)

Event Time Altitude Azimuth Distance (km) Brightness Sun altitude
Rises 08:10:38 0° 24° (NNE) 3,249 7.4 -9.5°
Reaches altitude 10° 08:12:58 10° 28° (NNE) 2,326 6.7 -8.9°
Maximum altitude 08:17:59 57° 105° (ESE) 920 4.9 -7.8°
Drops below altitude 10° 08:23:03 10° 183° (S) 2,345 6.6 -6.7°
Sets 08:25:24 0° 186° (S) 3,278 7.3 -6.2°
